Location: ??
(35.4032°N, 139.3073°E)
Time: 12:48:30
(UTC+00:00)

Cosmos 2266 Rocket - Pass Details

Date: 13 April 2024
Orbit: 934 x 1006 km, 82.9° (Epoch: 21 May)

Event Time Altitude Azimuth Distance (km) Brightness Sun altitude
Rises 18:39:25 0° 176° (S) 3,631 6.8 -18.6°
Reaches altitude 10° 18:41:56 10° 173° (S) 2,678 6.1 -18.1°
Maximum altitude 18:47:58 65° 93° (E) 1,033 4.3 -17.0°
Drops below altitude 10° 18:53:57 10° 13° (NNE) 2,657 6.8 -15.9°
Sets 18:56:26 0° 10° (N) 3,601 7.5 -15.4°
